Regional Weather Roundup
Issued by NWS

Home | Current Version | Previous Version | Text Only | Print | Product List | Glossary On
Versions: 1 2 3 4 5 6 7 8 9 10 11 12 13 14 15 16 17 18 19 20 21 22 23 24 25 26 27 28 29 30 31 32 33 34 35 36 37 38 39 40 41 42 43 44 45 46 47 48
000
ASUS43 KMPX 131310
RWRMN
WEATHER ROUNDUP FOR MINNESOTA
NATIONAL WEATHER SERVICE TWIN CITIES/CHANHASSEN MN
800 AM CDT THU AUG 13 2020


NOTE: "FAIR" INDICATES FEW OR NO CLOUDS BELOW 12,000 FEET WITH NO
SIGNIFICANT WEATHER AND/OR OBSTRUCTIONS TO VISIBILITY. N/A MEANS
CURRENT SKY AND/OR WEATHER CONDITIONS ARE NOT AVAILABLE.

MNZ060>063-068>070-131400-
   Twin Cities Metro

CITY           SKY/WX    TMP DP  RH WIND       PRES   REMARKS
TWIN CITIES    MOSUNNY   71  66  84 SE9       30.00S
ST PAUL        MOSUNNY   72  65  78 S10       30.01R
CRYSTAL        MOSUNNY   72  66  81 SE6       29.99R
BLAINE         MOSUNNY   72  70  94 SE7       30.00R
LAKEVILLE      MOSUNNY   72  66  83 S6        30.01S
EDEN PRAIRIE   MOSUNNY   71  67  87 SE6       29.98F
SOUTH ST PAUL  MOSUNNY   70  66  85 SE5       30.01R
LAKE ELMO      FAIR      68  64  88 SE6       30.04R
$$
MNZ001>005-007-008-013>017-022>024-027-028-131400-
   Northwest Minnesota

CITY           SKY/WX    TMP DP  RH WIND       PRES   REMARKS
BEMIDJI        CLOUDY    63  62  96 SE12      29.96F
HALLOCK        CLOUDY    66  64  94 SE12      29.84R
ROSEAU         PTSUNNY   63 N/A N/A SE12      29.91S
WARROAD        SUNNY     61  57  88 SE12G18   29.93S
THIEF RVR FALL PTSUNNY   64  61  90 SE17G23   29.89S
CROOKSTON      SUNNY     68  64  88 SE17      29.84F
FOSSTON        CLOUDY    63  61  94 SE12G17   29.91S
DETROIT LAKES  FOG       64  63  94 SE14      29.93F VSB 3/4
MOORHEAD       CLOUDY    72  64  78 SE13G20   29.85F
PARK RAPIDS    FOG       63  61  93 SE10      29.96S VSB 3/4
MAHNOMEN       CLOUDY    65  64  96 SE10      29.90S
$$
MNZ006-009>011-018-025>026-131400-
   North Central Minnesota

CITY           SKY/WX    TMP DP  RH WIND       PRES   REMARKS
BAUDETTE       SUNNY     61  57  87 SE16G29   29.96F
FLAG ISLAND      N/A     64  57  77 SE12      29.93F
INTL FALLS     SUNNY     62  58  86 SE10      30.01F
WASKISH        PTSUNNY   61  57  88 E12G18    29.96S
BIG FORK       CLOUDY    63  59  88 SE6       30.06S
LONGVILLE      CLOUDY    63  61  94 SE7       29.99S
GRAND RAPIDS   CLOUDY    63  60  90 SE8       30.03F
CRANE LAKE     SUNNY     59  57  94 CALM      30.07F
ORR            SUNNY     63  57  82 SE9       30.02F
COOK           PTSUNNY   64  57  77 SE6       30.04F
WALKER         CLOUDY    63  62  97 SE6       29.98S
$$
MNZ012-019>021-037-131400-
   Northeast Minnesota

CITY           SKY/WX    TMP DP  RH WIND       PRES   REMARKS
DULUTH         CLOUDY    63  58  83 E13       30.07S
ELY            MOSUNNY   64  55  72 SE12G17   30.08S
HIBBING        CLOUDY    62  57  83 SE10      30.04F
EVELETH        CLOUDY    64  58  80 SE8       30.07S
DULUTH HARBOR  CLOUDY    66  57  72 E5        30.07S
TWO HARBORS    MOSUNNY   64  55  72 NE6       30.09R
SILVER BAY       N/A     64  63  94 E3        30.11R
GRAND MARAIS     N/A     64  56  75 NE8       30.13S
G MARAIS ARPRT MOSUNNY   64  55  72 E3        30.16S
$$
MNZ029>031-032-039>041-046>048-054>057-064-131400-
   West Central Minnesota

CITY           SKY/WX    TMP DP  RH WIND       PRES   REMARKS
FERGUS FALLS   CLOUDY    72  68  88 SE13G18   29.90S
WHEATON        CLOUDY    72  68  88 SE13G20   29.89S
MORRIS         CLOUDY    72  72 100 SE15      29.92S
ALEXANDRIA     FOG       69  69 100 SE8       29.96S VSB 3/4
ELBOW LAKE     CLOUDY    70  70  99 SE15      29.91F
WADENA         FOG       63  63 100 SE10      29.95S VSB 1/4
GLENWOOD       CLOUDY    72  70  94 S9        29.96R FOG
APPLETON       SUNNY     73  70  88 SE9       29.90S
BENSON         PTSUNNY   72  70  94 S9G16     29.94R
ORTONVILLE     SUNNY     70  70 100 SE8       29.89S
MADISON        SUNNY     73  72  94 SE7       29.90S
WILLMAR        PTSUNNY   73  72  94 S5        29.99R FOG
$$
MNZ033>034-036-042>043-049>051-058-059-131400-
   Central Minnesota

CITY           SKY/WX    TMP DP  RH WIND       PRES   REMARKS
ST CLOUD       CLOUDY    66  64  93 E6        29.99R
SAUK CENTRE    FOG       68  68 100 SE5       29.97R VSB 1/4
PAYNESVILLE    CLOUDY    71  71 100 SE5       29.98R FOG
AITKIN         CLOUDY    63  59  88 E7        30.00S
PINE RIVER     CLOUDY    61  59  94 SE8       30.01F FOG
BRAINERD       CLOUDY    67  63  87 SE7       29.99S FOG
STAPLES        FOG       63  63 100 SE6       29.96F VSB 1/2
LONG PRAIRIE   FOG       64  63  94 SE5       29.98S VSB 1/4
LITTLE FALLS   CLOUDY    64  64 100 SE8       29.99S
CAMP RIPLEY    FOG       65  65  99 SE7       30.00R VSB 1/2
LITCHFIELD     CLOUDY    73  73 100 S6        29.98R FOG
BUFFALO        CLOUDY    70  67  89 MISG      30.01R
MAPLE LAKE       N/A     70  70  98 CALM      30.00R FOG
HUTCHINSON     CLOUDY    72  72 100 S5        29.99S FOG
$$
MNZ037-044-045-052-053-131400-
   East Central Minnesota

CITY           SKY/WX    TMP DP  RH WIND       PRES   REMARKS
PRINCETON      PTSUNNY   68  64  88 E5        30.00S
MORA           CLOUDY    63  61  94 SE6       30.03S
CAMBRIDGE      MOSUNNY   70  61  73 SE6       30.02R
RUSH CITY      CLOUDY    64  61  89 E6        30.03R
MOOSE LAKE     CLOUDY    63  59  88 E3        30.03R
HINCKLEY       CLOUDY    64  63  94 E8        30.03S
CLOQUET        CLOUDY    63  57  82 E9        30.06R
MCGREGOR       CLOUDY    63  61  94 E6        30.03R
$$
MNZ071>073-080-081-089-090-097-098-131400-
   Southwest Minnesota

CITY           SKY/WX    TMP DP  RH WIND       PRES   REMARKS
MONTEVIDEO     SUNNY     72  70  94 S8        29.93S
GRANITE FALLS  SUNNY     73  71  93 SE10G16   29.95S
CANBY          SUNNY     75  71  85 S9G18     29.92S
MARSHALL       SUNNY     75  71  87 S12       29.94S
REDWOOD FALLS  CLOUDY    73  70  90 S12       29.96R
OLIVIA         CLOUDY    73  70  88 S6        29.96R
PIPESTONE        N/A     72  70  94 S12       29.97S
WINDOM         MOSUNNY   73  72  94 S8        29.99R
WORTHINGTON    CLOUDY    72  70  94 S12       30.00S FOG
JACKSON        CLOUDY    72  70  94 S10G16    30.01R
TRACY          SUNNY     74  68  81 S13G20    29.96R
SLAYTON        PTSUNNY   72  66  81 S9        29.99S HAZE
$$
MNZ065>067-074>077-082>085-091>093-131400-
   South Central Minnesota

CITY           SKY/WX    TMP DP  RH WIND       PRES   REMARKS
MANKATO        CLOUDY    70  70 100 S10       30.00S FOG
NEW ULM        CLOUDY    73  72  94 S9        29.98S
ST JAMES         N/A     72  72 100 S10       29.98S
FAIRMONT       CLOUDY    72  71  97 S14       30.00S FOG
GLENCOE        CLOUDY    70  69  96 CALM      29.98S FOG
FARIBAULT      SUNNY     72  66  83 S7        30.03R
OWATONNA       SUNNY     72  66  83 S10       30.02S
ALBERT LEA     MOSUNNY   70  66  88 S12       30.03S
$$
MNZ078>079-086>088-094>096-131400-
   Southeast Minnesota

CITY           SKY/WX    TMP DP  RH WIND       PRES   REMARKS
ROCHESTER      SUNNY     69  62  78 S14       30.06S
RED WING       MOSUNNY   72  63  73 SE7       30.03R
STANTON        MOSUNNY   71  65  82 S9        30.01R
DODGE CENTER   SUNNY     70  63  78 SE8       30.04S
WINONA         SUNNY     70  64  83 SE5       30.06S
AUSTIN         MOSUNNY   70  64  83 S6        30.05S
PRESTON        SUNNY     68  60  75 S8        30.08S
$$
ABBREVIATIONS USED IN REMARKS
   TC - TEMPERATURES IN CELSIUS
  WCI - WIND CHILL INDEX
   HX - HEAT INDEX
  VSB - VISIBILITY
$$



USA.gov is the U.S. government's official web portal to all federal, state and local government web resources and services.